Location: Hilton Head Island
(32.2163°N, 80.7526°W)
Time: 03:53:48
(UTC-05:00)

Tiros 1 - All Passes

Search period start: 17 February 2026 00:00
Search period end: 27 February 2026 00:00
Orbit: 618 x 649 km, 48.4° (Epoch: 15 February)

Date Brightness Start Highest point End Pass type
(mag) Time Alt. Az. Time Alt. Az. Time Alt. Az.
17 Feb - 07:49:01 10° SSW 07:53:31 53° SE 07:57:59 10° ENE daylight
17 Feb - 09:31:38 10° W 09:35:34 27° NNW 09:39:29 10° NNE daylight
17 Feb - 11:17:23 10° NNW 11:18:42 11° N 11:20:02 10° N daylight
17 Feb - 13:00:29 10° NNW 13:02:19 12° NNE 13:04:08 10° NE daylight
17 Feb - 14:41:08 10° NW 14:45:17 34° NNE 14:49:26 10° E daylight
17 Feb - 16:22:58 10° WNW 16:27:10 37° SW 16:31:22 10° SSE daylight
18 Feb - 06:30:37 10° S 06:33:37 17° SE 06:36:36 10° E visible
18 Feb - 08:10:31 10° WSW 08:15:07 67° NW 08:19:41 10° NE daylight
18 Feb - 09:54:40 10° WNW 09:57:40 17° NNW 10:00:38 10° NNE daylight
18 Feb - 13:21:32 10° NNW 13:24:35 17° NNE 13:27:37 10° ENE daylight
18 Feb - 15:02:32 10° NW 15:07:04 71° NE 15:11:37 10° ESE daylight
18 Feb - 16:45:51 10° W 16:48:31 15° SW 16:51:11 10° SSW daylight
19 Feb - 06:50:39 10° SSW 06:55:00 41° SE 06:59:19 10° ENE daylight
19 Feb - 08:32:46 10° W 08:36:55 32° NNW 08:41:04 10° NNE daylight
19 Feb - 10:18:10 10° NW 10:19:56 12° NNW 10:21:41 10° N daylight
19 Feb - 12:02:07 10° N 12:03:32 11° N 12:04:57 10° NNE daylight
19 Feb - 13:42:42 10° NNW 13:46:39 28° NNE 13:50:35 10° E daylight
19 Feb - 15:24:17 10° WNW 15:28:40 49° SW 15:33:03 10° SSE daylight
20 Feb - 05:33:04 10° SSE 05:35:10 13° SE 05:37:14 10° E visible
20 Feb - 07:11:55 10° SW 07:16:33 85° NW 07:21:10 10° NE daylight
20 Feb - 08:55:37 10° WNW 08:58:56 19° NNW 09:02:16 10° NNE daylight
20 Feb - 10:42:01 10° N 10:42:20 10° N 10:42:39 10° N daylight
20 Feb - 12:23:09 10° NNW 12:25:51 15° NNE 12:28:33 10° NE daylight
20 Feb - 14:04:01 10° NW 14:08:30 56° NE 14:12:58 10° ESE daylight
20 Feb - 15:46:44 10° W 15:50:04 20° SW 15:53:24 10° S daylight
21 Feb - 05:52:23 10° SSW 05:56:30 31° SE 06:00:34 10° ENE visible
21 Feb - 07:33:56 10° WSW 07:38:18 39° NNW 07:42:37 10° NE daylight
21 Feb - 09:18:59 10° NW 09:21:10 13° NNW 09:23:21 10° NNE daylight
21 Feb - 11:03:44 10° N 11:04:45 11° N 11:05:46 10° NNE daylight
21 Feb - 12:44:16 10° NNW 12:47:59 24° NNE 12:51:41 10° E daylight
21 Feb - 14:25:38 10° NW 14:30:09 64° SW 14:34:38 10° SE daylight
22 Feb - 06:13:20 10° SW 06:17:59 76° SE 06:22:35 10° NE visible
22 Feb - 07:56:36 10° WNW 08:00:14 22° NNW 08:03:51 10° NNE daylight
22 Feb - 09:42:41 10° NNW 09:43:31 10° N 09:44:22 10° N daylight
22 Feb - 11:24:45 10° NNW 11:27:06 14° NNE 11:29:27 10° NE daylight
22 Feb - 13:05:32 10° NW 13:09:54 44° NE 13:14:15 10° ESE daylight
22 Feb - 14:47:48 10° WNW 14:51:36 26° SW 14:55:22 10° S daylight
23 Feb - 04:54:14 10° S 04:58:00 24° SE 05:01:44 10° ENE visible
23 Feb - 06:35:09 10° WSW 06:39:40 49° NW 06:44:09 10° NE daylight
23 Feb - 08:19:49 10° NW 08:22:24 15° NNW 08:24:58 10° NNE daylight
23 Feb - 10:05:19 10° N 10:05:57 10° N 10:06:35 10° NNE daylight
23 Feb - 11:45:50 10° NNW 11:49:17 21° NNE 11:52:44 10° ENE daylight
23 Feb - 13:27:03 10° NW 13:31:36 84° SW 13:36:08 10° SE daylight
23 Feb - 15:12:16 10° WSW 15:12:54 10° SW 15:13:31 10° SW daylight
24 Feb - 05:14:51 10° SW 05:19:26 58° SE 05:23:59 10° ENE visible
24 Feb - 06:57:38 10° W 07:01:32 26° NNW 07:05:26 10° NNE daylight
24 Feb - 08:43:25 10° NNW 08:44:43 11° N 08:46:01 10° N daylight
24 Feb - 10:26:20 10° NNW 10:28:20 13° NNE 10:30:19 10° NE daylight
24 Feb - 12:07:03 10° NW 12:11:16 36° NNE 12:15:28 10° E daylight
24 Feb - 13:48:59 10° WNW 13:53:05 34° SW 13:57:12 10° SSE daylight
25 Feb - 03:56:15 10° S 03:59:30 19° SE 04:02:44 10° E visible
25 Feb - 05:36:26 10° WSW 05:41:03 62° NW 05:45:38 10° NE visible
25 Feb - 07:20:41 10° WNW 07:23:38 16° NNW 07:26:35 10° NNE daylight
25 Feb - 09:06:44 10° N 09:07:08 10° N 09:07:31 10° N daylight
25 Feb - 10:47:24 10° NNW 10:50:34 18° NNE 10:53:43 10° ENE daylight
25 Feb - 12:28:27 10° NW 12:33:02 77° NE 12:37:34 10° SE daylight
25 Feb - 14:12:04 10° W 14:14:25 14° SW 14:16:48 10° SSW daylight
26 Feb - 04:16:26 10° SSW 04:20:53 44° SE 04:25:19 10° ENE visible
26 Feb - 05:58:42 10° W 06:02:52 31° NNW 06:06:59 10° NNE visible
26 Feb - 07:44:11 10° NNW 07:45:55 12° N 07:47:39 10° N daylight
26 Feb - 09:27:55 10° N 09:29:32 12° N 09:31:09 10° NNE daylight
26 Feb - 11:08:34 10° NNW 11:12:36 30° NNE 11:16:37 10° E daylight
26 Feb - 12:50:14 10° WNW 12:54:35 45° SW 12:58:54 10° SSE daylight
